Precipitable_Water
0.51 0.51 0.51 0.50 0.50 0.49 0.49 0.50 0.52 0.51 0.48 0.45 0.40 0.36 0.36 0.37 0.38 0.34 0.18 0.21 0.27 0.57 0.93 0.88 0.93 1.01 1.17 1.00 1.14 1.22 0.69 0.53 0.52 0.48 0.45 0.50 0.49 0.83 1.02 0.99 1.11 1.19 1.19 1.17 1.09
0.57 0.58 0.57 0.57 0.56 0.54 0.51 0.48 0.45 0.45 0.47 0.48 0.47 0.44 0.43 0.42 0.30 0.22 0.34 0.40 0.42 0.61 0.51 0.48 0.59 0.81 0.78 0.74 0.88 0.83 0.63 0.56 0.65 0.62 0.50 0.48 0.46 0.69 0.82 0.90 0.99 1.10 1.30 1.33 1.12
0.64 0.64 0.62 0.61 0.60 0.58 0.56 0.54 0.50 0.46 0.42 0.41 0.45 0.48 0.47 0.47 0.25 0.28 0.55 0.52 0.54 0.59 0.53 0.52 0.53 0.56 0.49 0.62 0.69 0.73 0.53 0.64 0.62 0.66 0.59 0.52 0.47 0.63 0.68 0.69 0.83 0.91 1.14 1.26 1.10
0.67 0.64 0.61 0.59 0.56 0.54 0.53 0.52 0.50 0.44 0.44 0.45 0.45 0.43 0.45 0.38 0.19 0.42 0.55 0.50 0.52 0.61 0.54 0.46 0.42 0.30 0.27 0.31 0.48 0.45 0.58 0.63 0.62 0.60 0.56 0.55 0.54 0.54 0.61 0.61 0.84 1.00 1.20 1.25 1.08
0.71 0.68 0.66 0.63 0.60 0.56 0.52 0.49 0.45 0.33 0.34 0.39 0.45 0.47 0.36 0.19 0.22 0.44 0.51 0.65 0.70 0.54 0.44 0.38 0.31 0.29 0.23 0.25 0.33 0.38 0.45 0.57 0.61 0.56 0.55 0.58 0.53 0.50 0.54 0.67 0.82 0.95 1.10 1.22 1.13
0.72 0.70 0.67 0.63 0.59 0.57 0.55 0.53 0.47 0.43 0.38 0.40 0.39 0.41 0.28 0.20 0.25 0.36 0.54 0.50 0.47 0.48 0.46 0.44 0.38 0.35 0.28 0.26 0.26 0.35 0.43 0.49 0.48 0.46 0.49 0.52 0.52 0.53 0.49 0.65 0.73 0.83 0.93 1.16 1.17
0.68 0.66 0.64 0.61 0.57 0.50 0.48 0.44 0.42 0.39 0.44 0.47 0.45 0.37 0.23 0.16 0.35 0.42 0.44 0.37 0.36 0.30 0.26 0.44 0.50 0.40 0.42 0.33 0.40 0.34 0.26 0.29 0.36 0.40 0.39 0.43 0.42 0.48 0.51 0.53 0.60 0.72 0.88 1.08 1.20
0.70 0.65 0.61 0.61 0.58 0.51 0.47 0.44 0.42 0.43 0.45 0.46 0.47 0.37 0.20 0.27 0.27 0.25 0.31 0.30 0.39 0.39 0.31 0.37 0.49 0.39 0.40 0.40 0.36 0.32 0.29 0.20 0.22 0.26 0.28 0.29 0.25 0.42 0.49 0.54 0.56 0.68 0.82 1.00 1.16
0.69 0.64 0.60 0.61 0.60 0.55 0.50 0.46 0.45 0.49 0.52 0.56 0.41 0.28 0.19 0.29 0.25 0.31 0.32 0.25 0.30 0.38 0.45 0.49 0.45 0.37 0.39 0.28 0.28 0.31 0.22 0.23 0.21 0.23 0.21 0.21 0.19 0.29 0.40 0.40 0.50 0.64 0.77 0.95 1.13
0.71 0.68 0.64 0.64 0.62 0.60 0.51 0.44 0.45 0.49 0.48 0.49 0.46 0.25 0.28 0.24 0.26 0.27 0.30 0.28 0.25 0.28 0.32 0.36 0.35 0.29 0.32 0.28 0.18 0.21 0.22 0.24 0.25 0.24 0.24 0.18 0.17 0.25 0.30 0.33 0.43 0.63 0.76 0.90 0.99
0.76 0.73 0.71 0.69 0.66 0.61 0.47 0.34 0.27 0.26 0.28 0.23 0.23 0.26 0.28 0.31 0.31 0.26 0.26 0.24 0.24 0.25 0.19 0.29 0.23 0.22 0.26 0.26 0.28 0.28 0.27 0.26 0.29 0.28 0.22 0.19 0.22 0.25 0.28 0.31 0.43 0.57 0.73 0.85 0.93
0.81 0.78 0.74 0.70 0.63 0.59 0.45 0.30 0.31 0.34 0.23 0.30 0.31 0.31 0.33 0.33 0.27 0.28 0.30 0.20 0.20 0.18 0.24 0.23 0.19 0.28 0.29 0.30 0.29 0.31 0.29 0.28 0.32 0.30 0.28 0.23 0.22 0.27 0.29 0.31 0.40 0.53 0.66 0.78 0.95
0.85 0.83 0.76 0.68 0.62 0.56 0.41 0.36 0.46 0.41 0.24 0.27 0.31 0.30 0.30 0.31 0.27 0.27 0.30 0.26 0.21 0.18 0.19 0.17 0.20 0.26 0.26 0.26 0.26 0.30 0.31 0.30 0.31 0.36 0.34 0.24 0.20 0.26 0.30 0.31 0.38 0.48 0.63 0.77 0.85
0.86 0.86 0.77 0.67 0.51 0.54 0.41 0.46 0.48 0.42 0.20 0.22 0.28 0.31 0.32 0.31 0.25 0.32 0.32 0.27 0.23 0.20 0.20 0.17 0.20 0.20 0.22 0.23 0.28 0.25 0.35 0.35 0.36 0.34 0.28 0.28 0.16 0.24 0.29 0.28 0.31 0.37 0.50 0.56 0.69
0.85 0.82 0.74 0.71 0.54 0.46 0.48 0.52 0.46 0.36 0.14 0.26 0.28 0.36 0.32 0.28 0.27 0.27 0.33 0.27 0.20 0.20 0.20 0.17 0.17 0.17 0.18 0.20 0.25 0.21 0.28 0.29 0.30 0.30 0.28 0.25 0.21 0.23 0.30 0.27 0.28 0.31 0.37 0.46 0.53
0.83 0.78 0.73 0.64 0.59 0.56 0.57 0.48 0.37 0.21 0.14 0.24 0.28 0.26 0.23 0.25 0.26 0.29 0.29 0.29 0.24 0.19 0.20 0.19 0.23 0.21 0.20 0.22 0.25 0.26 0.24 0.25 0.27 0.26 0.21 0.25 0.22 0.23 0.25 0.28 0.30 0.32 0.34 0.34 0.45
0.81 0.74 0.67 0.60 0.42 0.58 0.51 0.36 0.22 0.17 0.28 0.24 0.24 0.25 0.23 0.21 0.22 0.24 0.24 0.23 0.21 0.17 0.16 0.19 0.18 0.19 0.20 0.18 0.23 0.24 0.22 0.18 0.18 0.20 0.19 0.28 0.23 0.25 0.30 0.30 0.32 0.32 0.33 0.37 0.38
0.76 0.68 0.61 0.57 0.56 0.53 0.41 0.29 0.19 0.26 0.24 0.30 0.28 0.25 0.21 0.23 0.22 0.22 0.23 0.22 0.26 0.29 0.23 0.18 0.15 0.19 0.21 0.19 0.19 0.23 0.23 0.20 0.17 0.19 0.21 0.29 0.20 0.26 0.35 0.33 0.36 0.39 0.45 0.53 0.58
0.72 0.55 0.54 0.56 0.58 0.50 0.35 0.24 0.25 0.26 0.31 0.29 0.28 0.22 0.22 0.24 0.22 0.20 0.21 0.22 0.26 0.33 0.28 0.25 0.22 0.32 0.25 0.23 0.23 0.25 0.23 0.27 0.24 0.25 0.21 0.24 0.27 0.30 0.36 0.34 0.42 0.51 0.56 0.65 0.66
0.59 0.50 0.50 0.61 0.63 0.43 0.30 0.26 0.27 0.35 0.35 0.34 0.25 0.27 0.21 0.23 0.19 0.20 0.20 0.25 0.29 0.37 0.43 0.36 0.26 0.34 0.35 0.31 0.26 0.25 0.29 0.24 0.27 0.22 0.21 0.25 0.27 0.26 0.31 0.36 0.43 0.47 0.55 0.70 0.80
0.54 0.43 0.54 0.61 0.59 0.39 0.26 0.28 0.32 0.42 0.39 0.33 0.30 0.27 0.27 0.25 0.24 0.20 0.20 0.26 0.33 0.36 0.43 0.40 0.35 0.32 0.38 0.35 0.32 0.30 0.26 0.28 0.31 0.30 0.25 0.23 0.26 0.36 0.35 0.47 0.48 0.58 0.69 0.83 0.89
0.51 0.38 0.56 0.59 0.38 0.37 0.30 0.33 0.38 0.40 0.46 0.41 0.38 0.33 0.30 0.30 0.27 0.24 0.24 0.32 0.42 0.43 0.35 0.41 0.37 0.31 0.35 0.42 0.48 0.48 0.42 0.37 0.28 0.27 0.27 0.27 0.25 0.53 0.57 0.62 0.63 0.70 0.80 0.94 1.05
0.46 0.46 0.57 0.55 0.32 0.32 0.35 0.33 0.38 0.37 0.42 0.42 0.38 0.41 0.39 0.33 0.28 0.33 0.34 0.42 0.43 0.43 0.41 0.46 0.35 0.28 0.32 0.40 0.49 0.48 0.53 0.58 0.54 0.37 0.27 0.24 0.24 0.59 0.65 0.72 0.78 0.80 0.92 1.03 1.17
0.48 0.37 0.44 0.47 0.43 0.35 0.31 0.30 0.32 0.41 0.41 0.45 0.41 0.43 0.38 0.35 0.39 0.34 0.34 0.38 0.40 0.40 0.47 0.49 0.37 0.33 0.29 0.34 0.42 0.39 0.48 0.66 0.59 0.42 0.31 0.26 0.27 0.48 0.59 0.66 0.83 0.87 0.98 1.09 1.24
0.51 0.41 0.44 0.34 0.36 0.35 0.33 0.30 0.29 0.31 0.39 0.45 0.41 0.41 0.37 0.32 0.34 0.33 0.38 0.39 0.38 0.44 0.47 0.47 0.36 0.37 0.36 0.40 0.42 0.44 0.44 0.56 0.57 0.63 0.51 0.40 0.38 0.56 0.72 0.81 0.90 0.95 0.96 1.07 1.16
0.47 0.42 0.45 0.40 0.39 0.33 0.30 0.28 0.28 0.31 0.35 0.37 0.37 0.39 0.41 0.36 0.38 0.35 0.39 0.37 0.37 0.41 0.42 0.49 0.37 0.40 0.35 0.37 0.38 0.36 0.47 0.52 0.56 0.58 0.57 0.69 0.57 0.83 0.94 1.00 0.98 0.97 0.97 1.03 1.08
0.61 0.58 0.48 0.40 0.36 0.32 0.30 0.29 0.29 0.31 0.32 0.37 0.39 0.37 0.36 0.41 0.45 0.46 0.43 0.46 0.49 0.45 0.42 0.43 0.42 0.38 0.30 0.34 0.33 0.31 0.51 0.57 0.56 0.58 0.62 0.63 0.82 0.98 0.91 0.97 1.02 1.01 1.02 1.07 1.08
Wind_Speed
13 14 14 15 15 15 16 16 16 15 15 14 14 13 13 13 13 11 12 12 11 13 12 12 11 11 11 11 10 8 7 6 5 6 9 11 10 6 5 2 4 2 6 9 7
15 16 17 17 18 18 18 18 18 18 18 17 16 16 15 15 14 13 11 11 10 12 12 14 13 13 13 14 13 12 11 9 7 8 9 12 10 5 3 2 3 2 4 5 6
17 18 19 20 20 21 21 21 21 21 20 20 20 19 18 16 15 12 9 8 9 11 12 12 13 14 15 16 16 15 15 14 12 13 11 11 10 5 5 5 4 4 0 2 3
19 20 20 21 21 22 22 22 23 23 22 22 22 21 20 17 15 13 14 13 13 12 12 13 13 15 16 17 18 19 20 19 15 13 13 12 11 9 8 10 6 5 3 4 3
20 20 21 21 21 21 21 21 21 21 21 22 21 20 19 17 20 19 18 16 17 17 16 16 16 17 18 17 18 22 21 19 20 17 18 17 15 13 13 11 7 5 5 7 5
19 19 20 20 20 21 20 20 19 19 17 16 16 15 14 18 17 18 17 16 18 18 19 19 19 19 19 19 19 18 20 21 20 20 21 20 18 15 12 10 9 8 9 10 9
18 19 19 20 20 20 20 19 19 18 16 15 13 11 12 15 12 12 14 17 19 22 22 22 21 20 18 18 19 19 21 23 23 22 22 22 21 19 16 13 13 12 11 12 13
18 19 19 20 21 21 21 20 19 16 14 13 12 12 13 13 14 16 18 18 18 20 22 21 20 21 21 20 19 18 18 20 17 18 19 19 26 22 19 17 17 14 13 14 15
19 20 20 21 22 23 21 20 17 14 13 12 12 11 13 12 12 13 14 17 19 18 19 18 19 19 18 19 20 18 22 20 19 16 17 16 21 17 19 19 18 16 16 16 17
20 21 21 22 23 22 21 18 13 12 12 12 9 10 10 13 16 18 17 18 17 17 17 20 21 21 20 20 21 21 19 17 18 17 21 23 23 22 22 22 21 18 17 18 19
21 21 22 22 23 20 18 13 12 10 11 11 12 10 14 16 15 15 17 16 17 18 20 20 22 24 26 27 26 22 22 22 21 21 21 20 23 23 20 18 18 17 17 19 20
22 22 22 23 22 18 14 11 11 13 13 10 10 12 14 14 13 13 11 14 16 18 17 20 27 25 26 27 27 26 25 24 21 17 19 23 24 21 17 17 18 18 18 19 19
22 22 23 23 20 15 13 11 13 13 12 12 12 13 15 14 14 14 13 13 16 17 21 26 23 24 26 28 27 27 26 24 21 21 20 21 22 19 20 19 19 19 18 20 21
22 23 23 23 14 17 13 13 16 13 12 13 12 12 16 15 14 15 15 16 16 18 20 23 24 25 26 29 27 30 25 25 23 21 21 17 22 23 20 19 18 19 19 18 20
22 23 22 20 18 15 14 16 14 12 11 14 13 15 19 14 16 14 17 17 19 20 18 20 20 22 26 28 27 29 25 26 25 24 21 21 20 20 21 21 20 20 20 20 22
23 23 22 17 16 15 16 15 12 12 10 12 15 17 17 15 15 17 16 16 17 18 19 24 20 20 24 23 25 21 21 20 19 20 23 22 20 19 18 18 19 20 21 22 24
23 22 19 15 14 15 15 12 12 11 13 14 15 18 17 17 16 16 17 17 16 18 19 21 20 21 23 23 18 19 18 18 19 19 23 15 19 20 20 20 21 21 21 21 22
22 18 13 14 15 14 13 12 11 12 13 15 16 17 14 17 15 17 17 15 15 19 21 18 18 15 17 24 23 21 21 18 19 18 19 15 20 19 18 17 16 17 19 21 23
20 14 13 14 13 13 12 11 11 12 14 16 15 13 14 14 15 16 15 15 16 19 18 17 16 18 15 15 20 17 18 21 21 16 19 19 21 23 18 16 15 17 18 19 21
18 15 15 14 14 13 12 12 13 13 14 13 13 13 14 16 16 16 15 14 15 17 18 15 17 12 9 8 13 18 16 15 16 17 21 21 23 22 23 20 18 18 18 18 19
16 14 14 15 14 13 12 12 13 14 14 12 13 13 14 15 15 15 15 17 17 19 18 16 13 14 11 8 10 11 15 17 16 16 18 22 24 22 24 21 20 19 18 18 17
16 15 15 15 14 13 12 13 14 14 13 13 13 13 14 15 15 14 14 15 19 19 17 14 14 12 15 16 11 9 10 16 19 18 21 20 23 14 16 17 18 16 16 16 15
16 16 15 15 13 13 13 13 13 14 14 14 14 14 14 15 16 15 16 18 19 19 16 15 12 13 14 8 8 9 10 11 14 17 25 23 17 10 11 12 12 13 13 12 11
16 15 15 14 14 13 13 12 14 14 15 14 15 15 16 15 15 17 18 18 20 19 19 15 14 14 13 14 13 17 15 10 11 14 20 26 22 17 14 11 11 10 10 9 8
16 15 15 14 13 13 14 13 14 14 13 14 14 14 16 16 18 17 20 22 20 18 13 13 16 15 18 17 15 17 17 14 13 11 13 20 21 14 13 11 10 10 9 8 7
17 16 15 15 16 15 14 14 14 14 14 13 14 17 16 16 18 21 22 20 18 17 15 13 14 17 20 17 16 18 14 14 13 13 15 12 12 14 14 11 9 7 7 8 11
17 17 17 15 15 15 15 14 14 14 15 17 16 16 18 17 20 24 25 25 23 20 16 16 15 14 18 16 17 16 12 13 13 14 14 15 12 13 11 9 8 7 6 6 7
Wind_Direction
332 330 328 325 322 318 314 311 308 306 304 303 302 302 302 301 297 281 271 266 260 239 233 236 243 243 243 256 260 267 273 286 296 323 334 349 350 348 340 9 359 13 13 22 67
325 323 321 318 316 313 310 307 304 300 296 294 293 294 295 296 290 281 271 261 250 234 238 238 241 240 254 259 256 256 264 266 276 301 311 327 339 338 330 343 335 360 13 45 74
320 318 317 315 312 310 307 304 301 298 294 291 287 287 287 287 281 266 268 258 239 238 245 244 246 250 258 258 254 255 259 259 266 281 293 313 318 319 310 288 278 273 225 128 105
317 317 316 315 313 311 309 306 303 297 293 289 286 284 281 275 270 259 263 258 246 248 245 251 251 259 262 259 258 261 259 260 267 269 279 292 299 299 279 288 303 283 228 187 169
319 318 318 318 318 316 314 312 308 304 298 292 287 282 276 270 261 265 265 256 248 253 253 253 256 263 266 267 269 259 262 262 265 263 271 276 273 289 284 278 284 271 233 213 204
321 322 322 322 322 322 320 318 315 313 309 304 294 285 276 270 267 263 259 254 254 254 255 255 263 263 266 265 265 269 271 267 267 268 269 267 267 270 286 278 265 256 242 226 214
324 326 325 325 325 325 322 319 317 312 310 305 297 289 282 275 272 267 262 263 263 259 258 259 264 260 265 267 267 268 271 272 267 269 271 265 263 258 270 278 263 256 245 228 218
324 325 325 324 324 323 321 319 316 313 314 311 297 290 283 286 283 274 267 265 268 265 260 261 257 263 261 264 268 271 269 269 270 267 267 264 267 259 267 275 261 251 244 230 219
322 323 323 324 323 323 321 319 313 309 311 313 305 296 291 292 289 282 269 270 272 265 262 259 256 260 261 259 264 261 269 269 276 269 267 269 274 266 267 275 260 248 242 230 220
320 320 321 322 322 322 321 318 313 310 310 312 308 304 298 299 292 282 276 274 266 267 264 256 258 258 257 255 261 263 263 261 272 272 272 274 271 268 268 268 256 246 239 225 222
318 319 320 321 323 321 323 320 321 311 323 311 305 302 307 311 302 289 274 271 272 267 263 258 257 255 253 255 262 262 265 270 272 272 269 265 271 270 273 262 248 242 232 224 225
315 317 317 319 320 318 319 324 324 312 309 312 302 304 309 314 308 311 294 276 270 266 265 263 260 260 260 260 257 259 263 267 272 263 270 273 269 264 261 258 251 241 234 229 226
313 314 316 317 314 314 311 313 316 311 300 303 299 304 315 309 306 305 299 293 281 274 266 265 270 262 257 257 257 256 258 264 265 271 266 268 261 255 265 260 250 241 241 237 231
311 312 315 317 304 311 304 306 312 303 300 309 307 308 311 307 297 300 298 295 289 284 276 273 268 261 258 257 255 259 256 260 262 266 269 261 267 261 257 258 248 244 242 243 237
309 310 312 311 303 302 301 306 306 300 296 309 307 305 311 308 307 309 307 298 290 287 283 282 274 262 257 256 252 259 258 258 260 259 259 254 256 258 255 251 248 245 246 251 245
307 308 308 302 299 296 300 302 296 294 296 303 304 312 314 307 306 307 312 311 298 295 287 282 282 278 268 259 252 254 250 252 253 253 254 251 250 257 249 250 253 252 252 260 251
306 306 302 298 297 299 299 293 293 294 301 311 308 311 308 306 305 314 312 317 323 309 305 296 284 279 266 260 247 239 241 251 248 243 254 244 242 253 260 257 255 261 267 267 263
308 303 296 299 299 297 293 292 292 296 300 304 308 308 306 317 306 310 311 318 316 324 307 304 298 285 269 251 244 236 237 244 252 248 252 242 252 250 262 264 267 264 268 270 272
305 293 293 301 299 295 290 293 292 292 299 306 307 311 310 311 310 311 308 301 313 325 318 305 299 302 280 262 230 235 236 246 251 252 254 252 254 258 253 267 273 276 279 278 277
296 287 291 292 296 292 291 288 288 291 298 302 306 307 311 312 311 312 305 305 312 320 319 303 301 307 302 282 249 238 237 243 244 245 254 254 261 262 262 265 273 284 282 281 282
290 281 286 291 292 291 289 288 287 291 290 292 300 303 307 308 309 307 304 304 314 308 312 304 293 294 293 290 287 252 244 244 249 244 255 263 262 256 255 261 268 277 279 279 279
288 280 287 287 286 288 286 288 290 291 294 294 294 297 303 305 306 305 304 300 311 313 302 298 292 283 292 288 285 272 270 254 250 245 252 259 262 258 257 263 259 268 272 275 271
287 281 284 282 280 283 286 286 284 289 291 295 294 299 304 301 305 303 305 304 305 306 301 299 277 286 290 279 275 281 296 282 273 253 247 246 249 255 260 258 271 264 271 270 263
285 280 282 280 280 280 283 284 286 287 287 293 291 300 303 299 297 302 302 303 303 296 292 284 272 263 273 281 281 283 294 293 271 266 260 241 249 249 261 259 261 259 270 266 252
284 279 277 279 277 278 277 280 282 286 284 290 288 298 299 296 298 298 302 304 298 299 283 288 275 263 264 272 281 282 280 286 290 277 265 271 265 252 249 248 246 253 257 248 237
278 276 274 274 274 273 273 273 277 280 281 285 291 302 300 292 295 302 304 301 294 296 279 283 275 279 275 271 276 281 284 290 291 295 276 263 246 239 235 231 248 248 259 245 241
273 273 273 273 271 271 272 272 271 281 275 277 291 300 296 299 300 297 296 290 281 284 278 272 274 273 275 275 276 274 277 286 283 290 267 261 231 224 220 224 229 240 258 252 250